Weather Roundup
Issued by NWS

Home | Current Version | Previous Version | Graphics & Text | Print | Product List | Glossary Off
Versions: 1 2 3 4 5 6 7 8 9 10 11 12 13 14 15 16 17 18 19 20 21 22 23 24 25 26 27 28 29 30 31 32 33 34 35 36 37 38 39 40 41 42 43 44 45 46 47 48 49 50

000
NZUS93 KARX 210359
HRRWXR

CURRENT HOURLY OBSERVATIONS ACROSS
MUCH OF THE UPPER MISSISSIPPI VALLEY
NATIONAL WEATHER SERVICE LA CROSSE WI
1100 PM CDT FRI OCT 20 2017


...SOUTHEAST MINNESOTA...


CITY           SKY/WX    TMP DP  RH WIND       PRES   REMARKS
ROCHESTER      CLOUDY    62  49  62 S22G32    29.82S
ROCHESTER/MAYO FAIR      63  47  55 SE16G31   29.81S
WINONA         CLOUDY    70  45  40 S9G21     29.84R
AUSTIN         CLOUDY    63  48  59 S14       29.81S
ALBERT LEA     NOT AVBL
DODGE CENTER   CLOUDY    63  48  59 S25       29.79S
PRESTON        CLOUDY    62  46  55 S18G26    29.85S
OWATONNA       CLOUDY    64  52  63 S18G28    29.76S
FARIBAULT      CLOUDY    64  52  63 SE20G25   29.76R
$$

...ELSEWHERE IN MINNESOTA...


CITY           SKY/WX    TMP DP  RH WIND       PRES   REMARKS
MINNEAPOLIS    CLOUDY    68  52  56 S15G26    29.73S
INTNL FALLS    PTCLDY    68  46  45 S8        29.57S
DULUTH         CLOUDY    63  44  50 S16       29.73S
RED WING       MOCLDY    68  43  40 S13G22    29.77S
REDWOOD FALLS  CLOUDY    67  53  61 S23G30    29.62F
MANKATO        MOCLDY    66  53  63 S16G26    29.72R
WORTHINGTON    PTCLDY    65  57  75 S22G28    29.65F
FAIRMONT       CLOUDY    65  55  70 S25G37    29.71R
$$

...SOUTHWEST WISCONSIN...


CITY           SKY/WX    TMP DP  RH WIND       PRES   REMARKS
LA CROSSE      CLOUDY    68  46  45 S17       29.86S
PRAIRIE DU CHI CLOUDY    68  42  39 SE9       29.91R
BOSCOBEL       CLOUDY    69  44  40 S12G21    29.93R
LONE ROCK      NOT AVBL
PLATTEVILLE    PTCLDY    66  46  48 S17G23    29.96S
FORT MC COY    MOCLDY    68  44  41 S10G22    29.89R
MAUSTON-NEW LI CLOUDY    68  47  47 S10       29.90S
VIROQUA        FAIR      65  45  47 S13G20    29.91R
WIS DELLS      CLOUDY    66  42  41 S16G24    29.94R
$$

...ELSEWHERE IN WISCONSIN...


CITY           SKY/WX    TMP DP  RH WIND       PRES   REMARKS
MILWAUKEE      CLOUDY    68  48  48 S13       30.02R
MADISON        CLOUDY    67  46  47 S17       29.97S
GREEN BAY      PTCLDY    61  51  70 S8        29.96S
EAU CLAIRE     NOT AVBL
BLACK RVR FLS  FAIR      69  39  32 S9G22     29.86S
MEDFORD        CLOUDY    59  45  59 S9        29.88R
WAUSAU         MOCLDY    63  45  51 S13G24    29.89S
WIS RAPIDS     PTCLDY    65  47  52 S10       29.92R
MARSHFIELD     PTCLDY    60  44  55 S10       29.89R
RICE LAKE      PTCLDY    62  45  53 SE6       29.81S
$$

...NORTHEAST IOWA...


CITY           SKY/WX    TMP DP  RH WIND       PRES   REMARKS
WATERLOO       CLOUDY    62  47  57 S16       29.86S
DUBUQUE        MOCLDY    63  46  54 S14G22    29.95S
DECORAH        CLOUDY    64  46  52 S12G21    29.87R
MASON CITY     CLOUDY    63  50  62 S17       29.82S
CHARLES CITY   CLEAR     63  48  59 S14G20    29.85S
OELWEIN        CLOUDY    63  48  59 S14       29.90R
$$

...ELSEWHERE IN IOWA...


CITY           SKY/WX    TMP DP  RH WIND       PRES   REMARKS
DES MOINES     PTCLDY    63  52  67 S15       29.84S
IOWA CITY      PTCLDY    66  50  56 S12       29.95S
FORT DODGE     CLOUDY    63  54  72 S12G23    29.78R
MARSHALLTOWN   CLEAR     62  50  64 SE15      29.85S
CEDAR RAPIDS   CLOUDY    64  49  57 S12       29.91S
$$

...NORTHERN ILLINOIS...


CITY           SKY/WX    TMP DP  RH WIND       PRES   REMARKS
CHICAGO-OHARE  CLOUDY    66  48  52 S13       30.05S
CHICAGO-MIDWAY CLOUDY    67  49  52 S12       30.06S
MOLINE         MOCLDY    67  48  50 S16G23    29.96R
ROCKFORD       CLOUDY    62  46  55 S13       30.03R
PEORIA         CLOUDY    64  50  60 S10       30.04R
$$

NOTE: "FAIR" INDICATES FEW OR NO CLOUDS BELOW 12,000 FEET WITH NO
SIGNIFICANT WEATHER AND/OR OBSTRUCTIONS TO VISIBILITY. WIND
SPEEDS ARE IN MILES-PER-HOUR.




USA.gov is the U.S. government's official web portal to all federal, state and local government web resources and services.